Location: Basses Si�yes
(44.0835°N, 6.2037°E)
Time: 04:18:12
(UTC+00:00)

Lacrosse 5 - Pass Details

Date: 27 February 2020
Orbit: 715 x 724 km, 57.0° (Epoch: 21 March)

Event Time Altitude Azimuth Distance (km) Brightness Sun altitude
Rises 20:28:43 0° 265° (W) 3,114 6.0 -34.0°
Reaches altitude 10° 20:31:24 10° 277° (W) 2,196 5.1 -34.4°
Enters shadow 20:34:52 27° 318° (NW) 1,368 3.7 -35.0°
